This is the latest recevied weather packets stored in our database for station/object K0QJ. If no packets are shown the sender has not sent any weather packets the latest 10 day(s).
| Time | Temp. | Humidity | Pressure | Rain* | Wind** | Luminosity | Snow |
|---|---|---|---|---|---|---|---|
| 1777744904 | 16.11° C | 38% | 1020.4 hPa | 0 mm | - | 788 W/m² | - |
| 1777744603 | 16.67° C | 36% | 1020.4 hPa | 0 mm | - | 798 W/m² | - |
| 1777744299 | 16.67° C | 38% | 1020.5 hPa | 0 mm | - | 777 W/m² | - |
| 1777743996 | 15.56° C | 37% | 1020.4 hPa | 0 mm | - | 736 W/m² | - |
| 1777743692 | 16.67° C | 36% | 1020.2 hPa | 0 mm | - | 759 W/m² | - |
| 1777743390 | 17.22° C | 38% | 1020.5 hPa | 0 mm | - | 786 W/m² | - |
| 1777743088 | 17.22° C | 37% | 1020.6 hPa | 0 mm | - | 830 W/m² | - |
| 1777742785 | 17.78° C | 37% | 1020.4 hPa | 0 mm | - | 815 W/m² | - |
| 1777742481 | 16.67° C | 39% | 1020.2 hPa | 0 mm | - | 808 W/m² | - |
| 1777742177 | 16.11° C | 36% | 1020.5 hPa | 0 mm | - | 807 W/m² | - |
| 1777741874 | 16.11° C | 38% | 1020.4 hPa | 0 mm | - | 810 W/m² | - |
| 1777741571 | 16.11° C | 39% | 1020.4 hPa | 0 mm | - | 798 W/m² | - |
| 1777741268 | 14.44° C | 40% | 1020.4 hPa | 0 mm | - | 800 W/m² | - |
| 1777740965 | 14.44° C | 40% | 1020.7 hPa | 0 mm | - | 792 W/m² | - |
| 1777740662 | 15° C | 39% | 1020.5 hPa | 0 mm | - | 791 W/m² | - |
| 1777740358 | 15.56° C | 38% | 1020.8 hPa | 0 mm | - | 807 W/m² | - |
| 1777740055 | 14.44° C | 40% | 1020.6 hPa | 0 mm | - | 816 W/m² | - |
| 1777739751 | 15° C | 39% | 1020.7 hPa | 0 mm | - | 823 W/m² | - |
| 1777739448 | 15.56° C | 39% | 1020.6 hPa | 0 mm | - | 811 W/m² | - |
| 1777739145 | 16.11° C | 39% | 1020.6 hPa | 0 mm | - | 813 W/m² | - |
| 1777738842 | 16.11° C | 40% | 1021 hPa | 0 mm | - | 776 W/m² | - |
| 1777738538 | 15.56° C | 41% | 1020.9 hPa | 0 mm | - | 762 W/m² | - |
| 1777738236 | 15° C | 41% | 1021.1 hPa | 0 mm | - | 768 W/m² | - |
| 1777737934 | 15° C | 44% | 1020.7 hPa | 0 mm | - | 715 W/m² | - |
| 1777737632 | 13.89° C | 45% | 1021 hPa | 0 mm | - | 702 W/m² | - |
* Rain latest hour (hover to see other rain measurements)
** Current wind speed in m/s (hover to see current wind gust speed)